This is the latest recevied weather packets stored in our database for station/object DB0FN-10. If no packets are shown the sender has not sent any weather packets the latest 10 day(s).
| Time | Temp. | Humidity | Pressure | Rain* | Wind** | Luminosity | Snow |
|---|---|---|---|---|---|---|---|
| 1777178722 | 16.11° C | 25% | 1024.1 hPa | - | - | - | - |
| 1777177822 | 15° C | 26% | 1024.1 hPa | - | - | - | - |
| 1777176922 | 15.56° C | 26% | 1024 hPa | - | - | - | - |
| 1777176021 | 16.67° C | 25% | 1023.9 hPa | - | - | - | - |
| 1777175121 | 17.22° C | 23% | 1023.8 hPa | - | - | - | - |
| 1777174221 | 16.67° C | 24% | 1023.8 hPa | - | - | - | - |
| 1777173321 | 16.67° C | 25% | 1023.7 hPa | - | - | - | - |
| 1777172421 | 16.67° C | 25% | 1023.7 hPa | - | - | - | - |
| 1777171521 | 16.67° C | 24% | 1023.6 hPa | - | - | - | - |
| 1777170620 | 16.67° C | 25% | 1023.4 hPa | - | - | - | - |
| 1777169720 | 17.22° C | 24% | 1023.4 hPa | - | - | - | - |
| 1777168820 | 17.78° C | 24% | 1023.4 hPa | - | - | - | - |
| 1777167920 | 17.22° C | 24% | 1023.3 hPa | - | - | - | - |
| 1777167020 | 17.78° C | 24% | 1023.3 hPa | - | - | - | - |
| 1777166120 | 17.78° C | 24% | 1023.1 hPa | - | - | - | - |
| 1777165220 | 17.78° C | 25% | 1023.1 hPa | - | - | - | - |
| 1777164320 | 17.78° C | 25% | 1023 hPa | - | - | - | - |
| 1777163420 | 18.33° C | 24% | 1023 hPa | - | - | - | - |
| 1777162520 | 18.33° C | 24% | 1023.1 hPa | - | - | - | - |
| 1777161620 | 18.89° C | 23% | 1023.1 hPa | - | - | - | - |
| 1777160720 | 18.89° C | 23% | 1023 hPa | - | - | - | - |
| 1777159820 | 19.44° C | 23% | 1023.1 hPa | - | - | - | - |
| 1777158919 | 19.44° C | 23% | 1023 hPa | - | - | - | - |
| 1777158019 | 19.44° C | 24% | 1023.1 hPa | - | - | - | - |
| 1777157119 | 19.44° C | 24% | 1023.1 hPa | - | - | - | - |
* Rain since midnight (hover to see other rain measurements)
** Current wind speed in m/s (hover to see current wind gust speed)